Аэропорт Баку (UBBB)

baku-airport

Международный аэропорт Баку

ICAO: UBBB, IATA: GYD

Бакинский международный аэропорт имени Гейдара Алиева — один из пяти международных аэропортов, обслуживающих Азербайджан. Находится в 25 километрах к востоку от Баку. Порт приписки национальной авиакомпании «Азербайджанские авиалинии».

Принимаемые типы ВС
Ан-12, Ан-24, Ан-26, Ан-28, Ан-30, Ан-32, Ан-72, Ан-74, Ан-124(по согласованию), Ил-62, Ил-76, Ту-134, Ту-154, Як-40, Як-42, Airbus A319, Airbus A320, Airbus A321, Boeing 737, Boeing 747, Boeing 757, Boeing 767 и др. типы ВС 3-4 класса, вертолёты всех типов.

 Схемы: Jeppesen

Сценарии: бесплатные демо-версии с уменьшенным разрешением:

 fs9     fsx     Prepar

платные: http://www.drzewiecki-design.net/

METAR:

UBBB 202130Z 14007KT 7000 NSC 02/02 Q1026 R88/CLRD// BECMG 2000 BR BKN005

TAF TAF UBBB 201707Z 2018/2118 15006KT 3000 BR SCT012 BKN100 TX08/2111Z TNM01/2103Z BECMG 2019/2021 0800 FG SCT003 TEMPO 2021/2105 VRB04KT 0300 BKN002 BECMG 2105/2107 18018G28KT 9999 NSW SCT020